Voltar ao catálogo

SES 8

AtivoComunicaçõesGEO
NORAD 39460·PAYLOAD·🇱🇺 Luxembourg

Lançado Dec 3, 2013 de Cape Canaveral Space Force Station

Loading…

TLE

AtualizadoSource: CelesTrak SupGP

Época: Sep 13, 2026, 23:30 UTC

1 39460C 13071A   26256.97916667 -.00000180  00000+0  00000+0 0  2560
2 39460   0.0449 266.4471 0002082 243.6360 290.3848  1.00271512    11

Acompanhe SES 8 em tempo real com AllMySat

Download on the App Store